Simultaneous Nadir Overpasses (SNOs) Predictions

Prediction of SNOs between LANDSAT-8 and METOP-B Satellite Orbit:

Table of predicted SNOs for the next 14.0 days since TLE Epoch: 3/29/2014
Index Date (LANDSAT-8) Time (LANDSAT-8) Lat,Lon (LANDSAT-8) SZA (LANDSAT-8 ) Date (METOP-B) Time (METOP-B) Lat,Lon (METOP-B) SZA (METOP-B ) Distance(km) Time Diff (sec)
1 03/31/2014 16:23:11 81.09, -27.00 78.64 03/31/2014 16:22:48 81.09, -26.90 78.64 1.80 23
2 03/31/2014 17:12:38 -81.09, 140.73 101.36 03/31/2014 17:13:28 -81.10, 140.91 101.32 3.18 50
3 04/03/2014 11:57:27 81.08, 39.29 77.57 04/03/2014 11:57:09 81.08, 39.27 77.55 0.44 18
4 04/03/2014 12:46:53 -81.11,-152.59 102.38 04/03/2014 12:47:48 -81.11,-152.50 102.35 1.62 55
5 04/06/2014 07:31:46 81.08, 105.71 76.52 04/06/2014 07:31:30 81.08, 105.72 76.51 0.25 16
6 04/06/2014 08:21:12 -81.11, -86.15 103.42 04/06/2014 08:22:09 -81.11, -86.00 103.38 2.57 57
7 04/09/2014 03:06:08 81.07, 171.90 75.46 04/09/2014 03:05:51 81.08, 172.07 75.47 3.19 17
8 04/09/2014 03:55:34 -81.10, -19.94 104.48 04/09/2014 03:56:31 -81.10, -19.97 104.46 0.55 57
9 04/11/2014 22:40:30 81.09,-121.42 74.48 04/11/2014 22:40:10 81.08,-121.29 74.49 2.22 20




NCC Satellite Simultaneous Nadir Overpasses (SNOs) Prediction Service
